Weather Roundup
Issued by NWS

Home | Current Version | Previous Version | Text Only | Print | Product List | Glossary On
Versions: 1 2 3 4 5 6 7 8 9 10 11 12 13 14 15 16 17 18 19 20 21 22 23 24 25 26 27 28 29 30 31 32 33 34 35 36 37 38 39 40 41 42 43 44 45 46 47 48 49 50
184
NZUS93 KARX 061410
HRRWXR

CURRENT HOURLY OBSERVATIONS ACROSS
MUCH OF THE UPPER MISSISSIPPI VALLEY
NATIONAL WEATHER SERVICE LA CROSSE WI
800 AM CST SAT FEB 06 2016


...SOUTHEAST MINNESOTA...


CITY           SKY/WX    TMP DP  RH WIND       PRES   REMARKS
ROCHESTER      CLOUDY    24  22  91 SW15      30.13F FOG     WCI  11
ROCHESTER/MAYO CLOUDY    26  25  93 SW5       30.14F WCI  21
WINONA         CLOUDY    30  25  80 W6        30.19S WCI  24
AUSTIN         CLOUDY    25  23  93 SW9       30.15F FOG     WCI  15
ALBERT LEA     FOG       25  25 100 SW6       30.14F VSB 3/4 WCI  18
DODGE CENTER   CLOUDY    25  23  93 SW13      30.12F FOG     WCI  13
PRESTON        CLOUDY    25  22  90 W9        30.16S FOG     WCI  15
OWATONNA       CLOUDY    25  23  93 SW13G18   30.13S FOG     WCI  13
FARIBAULT      LGT SNOW  25  25 100 S10G16    30.14R WCI  15
$$

...ELSEWHERE IN MINNESOTA...


CITY           SKY/WX    TMP DP  RH WIND       PRES   REMARKS
MINNEAPOLIS    CLOUDY    26  22  84 S7        30.12S WCI  18
INTNL FALLS    CLOUDY    18  15  88 SE5       29.93F FOG     WCI  11
DULUTH         CLOUDY    20  16  84 SW9       29.99F WCI   9
RED WING       CLOUDY    27  21  80 SW7       30.14F WCI  19
REDWOOD FALLS  CLOUDY    22  19  89 S9        30.07F WCI  12
MANKATO        CLOUDY    23  19  86 S9        30.13R VSB 3/4 WCI  13
WORTHINGTON    CLOUDY    19  18  93 SW13      30.11S WCI   7
FAIRMONT       CLOUDY    25  21  86 SW10      30.13R WCI  15
$$

...SOUTHWEST WISCONSIN...


CITY           SKY/WX    TMP DP  RH WIND       PRES   REMARKS
LA CROSSE      CLOUDY    28  24  85 SW8       30.18S WCI  20
PRAIRIE DU CHI CLOUDY    30  25  83 W7        30.22S WCI  23
BOSCOBEL       CLOUDY    29  27  92 SW6       30.22S WCI  23
LONE ROCK      CLOUDY    29  23  78 W7        30.21S WCI  22
PLATTEVILLE    CLOUDY    28  26  89 SW8       30.20F WCI  20
FORT MC COY    CLOUDY    27  25  93 W7        30.18S WCI  19
CAMP DOUGLAS   FLURRIES  27  27 100 W10       30.16S WCI  17
VIROQUA        CLOUDY    26  26  98 W14       30.16R WCI  15
WIS DELLS      CLOUDY    27  22  82 SW9       30.17F WCI  18
$$

...ELSEWHERE IN WISCONSIN...


CITY           SKY/WX    TMP DP  RH WIND       PRES   REMARKS
MILWAUKEE      MOCLDY    28  21  75 SW10      30.23R WCI  19
MADISON        CLOUDY    27  21  78 VRB6      30.20S WCI  20
GREEN BAY      CLOUDY    26  21  81 SW7       30.16S WCI  18
EAU CLAIRE     CLOUDY    25  20  81 SW8       30.12F WCI  16
BLACK RVR FLS  CLOUDY    28  26  95 SW5       30.16S FOG     WCI  22
MEDFORD        CLOUDY    22  21  96 SW9       30.08F FOG     WCI  12
WAUSAU         CLOUDY    25  21  85 W12       30.10S WCI  14
WIS RAPIDS     CLOUDY    25  21  85 W7        30.17R FOG     WCI  17
MARSHFIELD     CLOUDY    25  21  85 W10       30.11S FOG     WCI  15
RICE LAKE      CLOUDY    24  21  86 SW7       30.11F WCI  16
$$

...NORTHEAST IOWA...


CITY           SKY/WX    TMP DP  RH WIND       PRES   REMARKS
WATERLOO       CLOUDY    29  27  92 W6        30.21S FOG     WCI  23
DUBUQUE        CLOUDY    28  25  88 W9        30.21S WCI  19
DECORAH        CLOUDY    27  27 100 W7        30.18R FOG     WCI  19
MASON CITY     CLOUDY    25  24  96 SW12      30.18F FOG     WCI  14
CHARLES CITY   CLOUDY    27  27 100 W9        30.20R FOG     WCI  17
OELWEIN        CLOUDY    28  28 100 W9        30.20S FOG     WCI  20
$$

...ELSEWHERE IN IOWA...


CITY           SKY/WX    TMP DP  RH WIND       PRES   REMARKS
DES MOINES     CLOUDY    29  26  89 W6        30.24S FOG     WCI  23
IOWA CITY      MOCLDY    25  21  85 CALM      30.25F
FORT DODGE     CLOUDY    27  23  86 SW5       30.20F VSB 3/4 WCI  21
MARSHALLTOWN   CLOUDY    30  28  92 W9        30.21F FOG     WCI  22
CEDAR RAPIDS   CLOUDY    28  24  85 SW6       30.22F WCI  22
$$

...NORTHERN ILLINOIS...


CITY           SKY/WX    TMP DP  RH WIND       PRES   REMARKS
CHICAGO-OHARE  PTCLDY    26  22  84 SW10      30.26S WCI  16
CHICAGO-MIDWAY PTCLDY    27  21  78 S8        30.28S WCI  19
MOLINE         CLEAR     28  22  78 CALM      30.25F
ROCKFORD       CLOUDY    26  22  84 S6        30.27R WCI  19
PEORIA         CLEAR     26  24  92 CALM      30.30S FOG
$$

NOTE: "FAIR" INDICATES FEW OR NO CLOUDS BELOW 12,000 FEET WITH NO
SIGNIFICANT WEATHER AND/OR OBSTRUCTIONS TO VISIBILITY. WIND
SPEEDS ARE IN MILES-PER-HOUR.




USA.gov is the U.S. government's official web portal to all federal, state and local government web resources and services.